Regional Weather Roundup
Issued by NWS New Orleans/Baton Rouge, LA

Home | Current Version | Previous Version | Text Only | Print | Product List | Glossary On
Versions: 1 2 3 4 5 6 7 8 9 10 11 12 13 14 15 16 17 18 19 20 21 22 23 24 25 26 27 28 29 30 31 32 33 34 35 36 37 38 39 40 41 42 43 44 45 46 47 48 49 50
000
ASUS44 KLIX 210213
RWRLIX
NEW ORLEANS REGIONAL WEATHER ROUNDUP
NATIONAL WEATHER SERVICE NEW ORLEANS LA
900 PM CDT WED SEP 20 2017

NOTE: "FAIR" INDICATES FEW OR NO CLOUDS BELOW 12,000 FEET WITH NO
      SIGNIFICANT WEATHER AND/OR OBSTRUCTIONS TO VISIBILITY.
      SKY/WX - SKY CONDITION AND SIGNIFICANT WEATHER.
      TMP - AIR TEMPERATURE.     DP    - DEWPOINT TEMPERATURE.
      RH  - RELATIVE HUMIDITY.   PRES  - PRESSURE.
      HI  - HEAT INDEX.          WCI   - WIND CHILL INDEX.

*  THESE STATIONS ARE NOT NWS OR FAA STATIONS AND ARE NOT UNDER
   NWS QUALITY CONTROL.

LAZ038-040-048-061>063-065>067-069-210300-
SOUTHEAST LOUISIANA

CITY           SKY/WX    TMP DP  RH WIND       PRES   REMARKS
N.O. INTL ARPT MOCLDY    75  74  96 CALM      29.99S
N.O. LAKEFRONT CLOUDY    80  75  84 S3        30.00R
N.O. DOWNTOWN*   N/A     81  72  74 CALM      30.01R
RESERVE*         N/A     74  70  89 CALM      30.00R
SLIDELL        CLOUDY    79  74  84 CALM      30.00R
BATON ROUGE    CLOUDY    76  71  85 S5        29.99R
BOOTHVILLE     CLEAR     82  73  74 CALM      30.01R
BELLE CHASSE   NOT AVBL
BOGALUSA*        N/A     80  74  81 S3        30.02R
GALLIANO*      CLEAR     76  72  86 CALM      30.00R
NEW ROADS*       N/A     77  71  81 S5        30.00R
GONZALES*        N/A     72  71  98 CALM      29.99R
HAMMOND*       MOCLDY    77  70  78 CALM      30.00R
HOUMA*         NOT AVBL
PORT FOURCHON* CLEAR     84  72  65 CALM      30.01R

$$

MSZ070-080>082-210300-
SOUTHERN MISSISSIPPI

CITY           SKY/WX    TMP DP  RH WIND       PRES   REMARKS
MCCOMB         PTCLDY    75  72  90 CALM      29.99S
GULFPORT       CLOUDY    81  76  84 E7        30.00R
BILOXI         CLOUDY    79  71  76 NE8       30.01R
PASCAGOULA     CLOUDY    71  68  90 CALM      30.00F

$$

COASTAL OBSERVATIONS
LAKE AND NEARSHORE STATIONS

STATION/POSITION TIME  TEMP    WIND        PRES    WAVE
                       AIR SEA DIR/SP/G            HT/PER
                 (UTC) (F)     (DEG/KT/KT) (MB)    (FT/S)
PASCAGOULA       0148   76     340/  3/  6 1015.7
WAVELAND YACHT   0148   81 85   40/  1/  1 1016.1
GRAND ISLE       0148   83 87   CALM  /  4 1016.2
SOUTHWEST PASS   0148   83     150/  2/  4   N/A
NEW CANAL        0148   78 83  140/  2/  3 1015.6
SHELL BEACH      0148   81 87  170/  3/  5 1015.9

OFFSHORE STATIONS

STATION/POSITION TIME  TEMP    WIND        PRES    WAVE
                       AIR SEA DIR/SP/G            HT/PER
                 (UTC) (F)     (DEG/KT/KT) (MB)    (FT/S)
64 S DAUPHIN ISL 0150   83 84   CALM  /  2 1016.2    1

$$




USA.gov is the U.S. government's official web portal to all federal, state and local government web resources and services.